FIN75D LDDU-EFHK

Flight info

Callsign FIN75D
Flight time 2h 46m
Altitude 36000
Route MADOS1W MADOS L187 GEBNI DCT SOMUN/N0434F350 DCT TADAM DCT PARAK DCT KEKED/N0435F370 DCT PODAN DCT TOXAR DCT BOKSU DCT GUNTA M857 SOKVA DCT ANAMA DCT KEMET DCT KEXLE DCT BEKNA DCT INTOR INTOR6A
Aircraft A320/M-SDE3FGHIRWY/LB1

Departure

Time 2026-05-05 15:37
Airport Dubrovnik Ruđer Bošković Airport (LDDU)

Arrival

Time 2026-05-05 18:23
Airport Helsinki Vantaa Airport (EFHK)
Time Latitude Longitude Altitude Speed Heading
2026-05-05 15:03 42.56144 18.26151 521 ft 0 kts 208°
2026-05-05 15:29 42.56148 18.26153 521 ft 3 kts 208°
2026-05-05 15:30 42.56171 18.26173 522 ft 4 kts 220°
2026-05-05 15:30 42.56188 18.26199 523 ft 4 kts 252°
2026-05-05 15:30 42.56188 18.26223 523 ft 0 kts 299°
2026-05-05 15:32 42.56190 18.26219 523 ft 1 kts 299°
2026-05-05 15:32 42.56199 18.26197 523 ft 5 kts 298°
2026-05-05 15:33 42.56226 18.26129 524 ft 12 kts 298°
2026-05-05 15:33 42.56275 18.26005 524 ft 18 kts 298°
2026-05-05 15:33 42.56342 18.25834 524 ft 22 kts 298°
2026-05-05 15:33 42.56420 18.25639 525 ft 24 kts 298°
2026-05-05 15:34 42.56496 18.25449 526 ft 22 kts 297°
2026-05-05 15:34 42.56574 18.25249 522 ft 25 kts 298°
2026-05-05 15:34 42.56650 18.25059 525 ft 23 kts 298°
2026-05-05 15:34 42.56720 18.24883 526 ft 19 kts 298°
2026-05-05 15:35 42.56781 18.24733 525 ft 14 kts 303°
2026-05-05 15:35 42.56860 18.24678 524 ft 13 kts
2026-05-05 15:35 42.56923 18.24735 526 ft 11 kts 54°
2026-05-05 15:35 42.56926 18.24838 525 ft 12 kts 115°
2026-05-05 15:36 42.56881 18.24951 525 ft 17 kts 118°
2026-05-05 15:36 42.56725 18.25343 525 ft 82 kts 118°
2026-05-05 15:36 42.56359 18.26267 528 ft 138 kts 118°
2026-05-05 15:36 42.55859 18.27548 833 ft 154 kts 120°
2026-05-05 15:37 42.55347 18.28833 1419 ft 158 kts 120°
2026-05-05 15:37 42.54795 18.30181 1822 ft 174 kts 121°
2026-05-05 15:37 42.54168 18.31708 1981 ft 196 kts 121°
2026-05-05 15:37 42.53478 18.33416 2170 ft 217 kts 122°
2026-05-05 15:38 42.52451 18.34973 2297 ft 238 kts 144°
2026-05-05 15:38 42.50953 18.36018 2881 ft 247 kts 162°
2026-05-05 15:38 42.49243 18.36395 3745 ft 252 kts 180°
2026-05-05 15:38 42.47513 18.36046 4662 ft 254 kts 198°
2026-05-05 15:39 42.45938 18.34955 5518 ft 257 kts 217°
2026-05-05 15:39 42.44594 18.33331 6344 ft 261 kts 220°
2026-05-05 15:39 42.43172 18.31781 7129 ft 264 kts 215°
2026-05-05 15:39 42.41642 18.30378 7905 ft 267 kts 211°
2026-05-05 15:40 42.40012 18.29141 8681 ft 270 kts 206°
2026-05-05 15:40 42.38295 18.28089 9502 ft 272 kts 201°
2026-05-05 15:40 42.36504 18.27229 10254 ft 275 kts 197°
2026-05-05 15:40 42.34639 18.26555 10854 ft 284 kts 195°
2026-05-05 15:41 42.32646 18.25873 11038 ft 307 kts 195°
2026-05-05 15:41 42.30517 18.25141 11400 ft 322 kts 195°
2026-05-05 15:41 42.28327 18.24387 12030 ft 327 kts 196°
2026-05-05 15:41 42.26200 18.23299 12675 ft 329 kts 212°
2026-05-05 15:42 42.24466 18.21298 13362 ft 331 kts 232°
2026-05-05 15:42 42.23376 18.18576 14029 ft 333 kts 252°
2026-05-05 15:42 42.23093 18.15473 14636 ft 338 kts 273°
2026-05-05 15:42 42.23689 18.12394 15221 ft 345 kts 294°
2026-05-05 15:43 42.25125 18.09778 15819 ft 353 kts 315°
2026-05-05 15:43 42.27244 18.08047 16412 ft 363 kts 338°
2026-05-05 15:43 42.29765 18.07559 17012 ft 374 kts
2026-05-05 15:43 42.32304 18.08458 17607 ft 383 kts 19°
2026-05-05 15:44 42.34774 18.09872 18217 ft 386 kts 20°
2026-05-05 15:44 42.37248 18.11332 18758 ft 389 kts 20°
2026-05-05 15:44 42.39697 18.12794 19241 ft 392 kts 21°
2026-05-05 15:44 42.42203 18.14291 19734 ft 395 kts 21°
2026-05-05 15:45 42.44728 18.15792 20268 ft 397 kts 21°
2026-05-05 15:45 42.47262 18.17289 20790 ft 399 kts 21°
2026-05-05 15:45 42.49818 18.18789 21319 ft 401 kts 21°
2026-05-05 15:45 42.52389 18.20293 21828 ft 404 kts 21°
2026-05-05 15:46 42.54977 18.21803 22345 ft 406 kts 19°
2026-05-05 15:46 42.57678 18.22885 22824 ft 406 kts
2026-05-05 15:46 42.60488 18.23199 23298 ft 405 kts 356°
2026-05-05 15:46 42.63277 18.22739 23762 ft 405 kts 344°
2026-05-05 15:47 42.65942 18.21544 24158 ft 404 kts 334°
2026-05-05 15:47 42.67648 18.20530 24430 ft 404 kts 334°
2026-05-05 15:47 42.71104 18.18474 24975 ft 406 kts 334°
2026-05-05 15:47 42.73700 18.16935 25364 ft 407 kts 334°
2026-05-05 15:48 42.76349 18.15533 25745 ft 411 kts 341°
2026-05-05 15:48 42.79169 18.14780 26076 ft 417 kts 352°
2026-05-05 15:48 42.82093 18.14792 26420 ft 424 kts
2026-05-05 15:48 42.85000 18.15597 26766 ft 430 kts 15°
2026-05-05 15:49 42.87810 18.17031 27105 ft 433 kts 18°
2026-05-05 15:49 42.90629 18.18528 27448 ft 435 kts 18°
2026-05-05 15:49 42.93456 18.20024 27784 ft 437 kts 18°
2026-05-05 15:49 42.96300 18.21526 28115 ft 439 kts 18°
2026-05-05 15:50 42.99160 18.23038 28408 ft 442 kts 19°
2026-05-05 15:50 43.02027 18.24558 28719 ft 444 kts 19°
2026-05-05 15:50 43.04915 18.26090 29004 ft 446 kts 19°
2026-05-05 15:50 43.07814 18.27630 29302 ft 448 kts 19°
2026-05-05 15:51 43.10721 18.29176 29586 ft 450 kts 19°
2026-05-05 15:51 43.13645 18.30735 29876 ft 452 kts 19°
2026-05-05 15:51 43.16587 18.32303 30100 ft 455 kts 19°
2026-05-05 15:51 43.19546 18.33882 30319 ft 457 kts 19°
2026-05-05 15:52 43.22516 18.35466 30548 ft 459 kts 19°
2026-05-05 15:52 43.25494 18.37051 30762 ft 460 kts 18°
2026-05-05 15:52 43.28482 18.38643 30977 ft 461 kts 18°
2026-05-05 15:52 43.31474 18.40241 31259 ft 461 kts 18°
2026-05-05 15:53 43.34411 18.41817 31556 ft 460 kts 18°
2026-05-05 15:53 43.37387 18.43419 31904 ft 458 kts 18°
2026-05-05 15:53 43.40347 18.45013 32233 ft 456 kts 17°
2026-05-05 15:53 43.43297 18.46598 32565 ft 454 kts 17°
2026-05-05 15:54 43.46233 18.48180 32874 ft 453 kts 17°
2026-05-05 15:54 43.49167 18.49761 33186 ft 452 kts 17°
2026-05-05 15:54 43.52093 18.51338 33479 ft 451 kts 17°
2026-05-05 15:54 43.55018 18.52914 33769 ft 451 kts 17°
2026-05-05 15:55 43.57931 18.54485 34057 ft 450 kts 16°
2026-05-05 15:55 43.60844 18.56058 34324 ft 449 kts 16°
2026-05-05 15:55 43.63751 18.57631 34579 ft 448 kts 16°
2026-05-05 15:55 43.66648 18.59199 34832 ft 448 kts 17°
2026-05-05 15:56 43.69548 18.60769 35034 ft 448 kts 17°
2026-05-05 15:56 43.72449 18.62345 35238 ft 447 kts 17°
2026-05-05 15:56 43.75341 18.63921 35434 ft 447 kts 17°
2026-05-05 15:56 43.78235 18.65499 35605 ft 446 kts 17°
2026-05-05 15:57 43.81124 18.67077 35813 ft 446 kts 17°
2026-05-05 15:57 43.84006 18.68653 35991 ft 445 kts 17°
2026-05-05 15:57 43.86875 18.70223 36037 ft 442 kts 17°
2026-05-05 15:58 43.92589 18.73343 36031 ft 440 kts 17°
2026-05-05 15:58 43.98289 18.76454 36020 ft 440 kts 17°
2026-05-05 15:59 44.03985 18.79589 36024 ft 440 kts 18°
2026-05-05 15:59 44.09687 18.82732 36013 ft 441 kts 18°
2026-05-05 16:00 44.15401 18.85878 35999 ft 442 kts 18°
2026-05-05 16:00 44.21120 18.89033 35998 ft 442 kts 18°
2026-05-05 16:01 44.26841 18.92201 35990 ft 442 kts 18°
2026-05-05 16:01 44.32555 18.95375 35990 ft 442 kts 18°
2026-05-05 16:02 44.38274 18.98554 35990 ft 442 kts 18°
2026-05-05 16:02 44.43945 19.01712 35984 ft 441 kts 18°
2026-05-05 16:03 44.49645 19.04897 35976 ft 441 kts 19°
2026-05-05 16:03 44.55349 19.08093 35978 ft 441 kts 18°
2026-05-05 16:04 44.61040 19.11319 35977 ft 441 kts 20°
2026-05-05 16:04 44.66601 19.14955 36333 ft 440 kts 23°
2026-05-05 16:04 44.69335 19.16862 36594 ft 438 kts 23°
2026-05-05 16:05 44.72052 19.18769 36839 ft 436 kts 23°
2026-05-05 16:05 44.77525 19.22537 36941 ft 439 kts 22°
2026-05-05 16:06 44.83047 19.26255 36942 ft 440 kts 22°
2026-05-05 16:06 44.88575 19.29971 36942 ft 440 kts 22°
2026-05-05 16:07 44.94097 19.33704 36938 ft 439 kts 22°
2026-05-05 16:07 44.99598 19.37440 36940 ft 439 kts 22°
2026-05-05 16:08 45.05095 19.41186 36945 ft 439 kts 22°
2026-05-05 16:08 45.10597 19.44945 36950 ft 439 kts 22°
2026-05-05 16:09 45.16099 19.48704 36949 ft 439 kts 22°
2026-05-05 16:09 45.21605 19.52473 36949 ft 439 kts 22°
2026-05-05 16:10 45.26184 19.55578 36954 ft 439 kts 21°
2026-05-05 16:10 45.31792 19.58956 36960 ft 438 kts 19°
2026-05-05 16:11 45.37449 19.62152 36954 ft 438 kts 18°
2026-05-05 16:12 45.48729 19.68744 36955 ft 439 kts 19°
2026-05-05 16:13 45.62820 19.77148 36950 ft 439 kts 19°
2026-05-05 16:13 45.68465 19.80513 36960 ft 440 kts 20°
2026-05-05 16:14 45.79754 19.87255 36955 ft 440 kts 20°
2026-05-05 16:15 45.90997 19.94024 36956 ft 440 kts 20°
2026-05-05 16:16 46.02280 20.00841 36955 ft 440 kts 20°
2026-05-05 16:17 46.10745 20.05970 36952 ft 440 kts 20°
2026-05-05 16:18 46.19228 20.10996 36953 ft 439 kts 18°
2026-05-05 16:19 46.27928 20.15128 36958 ft 438 kts 15°
2026-05-05 16:19 46.36633 20.19201 36950 ft 439 kts 17°
2026-05-05 16:20 46.48202 20.24911 36955 ft 439 kts 17°
2026-05-05 16:22 46.62663 20.32014 36950 ft 439 kts 17°
2026-05-05 16:23 46.74230 20.37729 36945 ft 439 kts 17°
2026-05-05 16:23 46.82905 20.42024 36948 ft 439 kts 17°
2026-05-05 16:24 46.88687 20.44903 36945 ft 439 kts 17°
2026-05-05 16:25 46.97350 20.49223 36941 ft 439 kts 17°
2026-05-05 16:25 47.05982 20.53539 36940 ft 439 kts 17°
2026-05-05 16:26 47.17537 20.59351 36938 ft 439 kts 17°
2026-05-05 16:27 47.23310 20.62265 36945 ft 439 kts 17°
2026-05-05 16:27 47.29085 20.65182 36944 ft 439 kts 17°
2026-05-05 16:28 47.34859 20.68109 36941 ft 439 kts 17°
2026-05-05 16:28 47.40632 20.71054 36944 ft 439 kts 17°
2026-05-05 16:29 47.46405 20.73990 36941 ft 439 kts 17°
2026-05-05 16:29 47.52178 20.76921 36939 ft 439 kts 17°
2026-05-05 16:30 47.57948 20.79870 36938 ft 439 kts 17°
2026-05-05 16:30 47.63714 20.82836 36945 ft 439 kts 17°
2026-05-05 16:31 47.69442 20.85779 36945 ft 438 kts 17°
2026-05-05 16:31 47.75197 20.88748 36943 ft 438 kts 17°
2026-05-05 16:32 47.80956 20.91715 36938 ft 437 kts 17°
2026-05-05 16:32 47.86712 20.94687 36940 ft 437 kts 17°
2026-05-05 16:33 47.92454 20.97668 36942 ft 437 kts 18°
2026-05-05 16:33 47.98188 21.00668 36938 ft 437 kts 18°
2026-05-05 16:34 48.03932 21.03660 36947 ft 436 kts 17°
2026-05-05 16:34 48.09665 21.06637 36938 ft 436 kts 17°
2026-05-05 16:35 48.15400 21.09634 36934 ft 436 kts 17°
2026-05-05 16:35 48.21128 21.12649 36935 ft 436 kts 18°
2026-05-05 16:36 48.26856 21.15679 36941 ft 436 kts 17°
2026-05-05 16:36 48.32589 21.18699 36939 ft 436 kts 18°
2026-05-05 16:37 48.38310 21.21705 36936 ft 436 kts 17°
2026-05-05 16:37 48.44009 21.24717 36942 ft 436 kts 17°
2026-05-05 16:38 48.49725 21.27764 36938 ft 436 kts 17°
2026-05-05 16:38 48.55601 21.29690 36938 ft 432 kts
2026-05-05 16:39 48.61577 21.30654 36934 ft 432 kts
2026-05-05 16:39 48.67561 21.31635 36927 ft 433 kts
2026-05-05 16:40 48.73559 21.32614 36916 ft 434 kts
2026-05-05 16:40 48.79570 21.33604 36914 ft 435 kts
2026-05-05 16:41 48.85594 21.34602 36915 ft 436 kts
2026-05-05 16:41 48.91622 21.35594 36924 ft 436 kts
2026-05-05 16:42 48.97654 21.36593 36922 ft 436 kts
2026-05-05 16:42 49.03681 21.37605 36922 ft 436 kts
2026-05-05 16:43 49.09674 21.38602 36923 ft 436 kts
2026-05-05 16:43 49.15707 21.39605 36917 ft 436 kts
2026-05-05 16:44 49.21735 21.40617 36921 ft 436 kts
2026-05-05 16:44 49.27767 21.41629 36925 ft 436 kts
2026-05-05 16:45 49.33795 21.42646 36926 ft 436 kts
2026-05-05 16:45 49.39829 21.43670 36931 ft 436 kts
2026-05-05 16:46 49.45811 21.45366 36909 ft 438 kts
2026-05-05 16:46 49.51794 21.47289 36903 ft 439 kts
2026-05-05 16:47 49.57778 21.49214 36910 ft 439 kts
2026-05-05 16:47 49.63765 21.51143 36906 ft 439 kts
2026-05-05 16:48 49.69753 21.53086 36900 ft 439 kts
2026-05-05 16:48 49.75740 21.55035 36903 ft 439 kts
2026-05-05 16:49 49.81724 21.56974 36904 ft 439 kts
2026-05-05 16:49 49.87712 21.58920 36895 ft 439 kts 10°
2026-05-05 16:50 49.93660 21.60866 36893 ft 439 kts 10°
2026-05-05 16:50 49.99640 21.62829 36885 ft 439 kts 10°
2026-05-05 16:51 50.05627 21.64804 36884 ft 440 kts
2026-05-05 16:51 50.11614 21.66778 36879 ft 440 kts
2026-05-05 16:52 50.17602 21.68752 36879 ft 440 kts
2026-05-05 16:52 50.23592 21.70732 36881 ft 440 kts
2026-05-05 16:53 50.29583 21.72725 36876 ft 440 kts
2026-05-05 16:53 50.35566 21.74724 36870 ft 440 kts
2026-05-05 16:54 50.40539 21.76382 36868 ft 439 kts
2026-05-05 16:54 50.46527 21.78388 36862 ft 440 kts
2026-05-05 16:55 50.52525 21.80398 36852 ft 441 kts
2026-05-05 16:55 50.58536 21.82413 36850 ft 441 kts
2026-05-05 16:56 50.64544 21.84441 36847 ft 442 kts
2026-05-05 16:56 50.70563 21.86468 36853 ft 442 kts
2026-05-05 16:57 50.76583 21.88504 36848 ft 442 kts
2026-05-05 16:57 50.82600 21.90563 36837 ft 442 kts
2026-05-05 16:58 50.88619 21.92614 36833 ft 443 kts
2026-05-05 16:58 50.94642 21.94661 36845 ft 443 kts
2026-05-05 16:59 51.00663 21.96723 36837 ft 443 kts
2026-05-05 16:59 51.06681 21.98795 36840 ft 443 kts
2026-05-05 17:00 51.12700 22.00875 36840 ft 443 kts
2026-05-05 17:00 51.18720 22.02956 36849 ft 443 kts
2026-05-05 17:01 51.24742 22.05037 36844 ft 443 kts
2026-05-05 17:01 51.30766 22.07125 36835 ft 443 kts
2026-05-05 17:02 51.36760 22.09216 36837 ft 443 kts
2026-05-05 17:02 51.42785 22.11315 36836 ft 443 kts
2026-05-05 17:03 51.48814 22.13415 36841 ft 443 kts
2026-05-05 17:03 51.54845 22.15534 36837 ft 444 kts
2026-05-05 17:04 51.60879 22.17671 36835 ft 444 kts
2026-05-05 17:04 51.66919 22.19797 36840 ft 444 kts
2026-05-05 17:05 51.72971 22.21933 36840 ft 444 kts
2026-05-05 17:05 51.78985 22.24076 36838 ft 445 kts
2026-05-05 17:06 51.85042 22.26233 36831 ft 445 kts
2026-05-05 17:06 51.91085 22.28374 36843 ft 445 kts
2026-05-05 17:07 51.97115 22.30531 36839 ft 445 kts
2026-05-05 17:07 52.03193 22.32716 36836 ft 445 kts
2026-05-05 17:08 52.09230 22.34891 36835 ft 445 kts
2026-05-05 17:08 52.15256 22.37067 36836 ft 446 kts
2026-05-05 17:09 52.21348 22.39267 36829 ft 446 kts
2026-05-05 17:09 52.27416 22.41467 36827 ft 447 kts
2026-05-05 17:10 52.33468 22.43663 36822 ft 447 kts
2026-05-05 17:10 52.39565 22.45879 36824 ft 448 kts
2026-05-05 17:11 52.45643 22.48107 36813 ft 448 kts
2026-05-05 17:11 52.51715 22.50339 36807 ft 449 kts
2026-05-05 17:12 52.57806 22.52585 36820 ft 449 kts
2026-05-05 17:12 52.63914 22.54781 36820 ft 448 kts
2026-05-05 17:13 52.70047 22.56601 36819 ft 447 kts
2026-05-05 17:13 52.76164 22.58280 36816 ft 447 kts
2026-05-05 17:14 52.82301 22.60059 36814 ft 448 kts
2026-05-05 17:14 52.88429 22.61904 36828 ft 448 kts
2026-05-05 17:15 52.94576 22.63764 36823 ft 448 kts
2026-05-05 17:15 53.00743 22.65624 36826 ft 449 kts
2026-05-05 17:16 53.06882 22.67467 36824 ft 449 kts
2026-05-05 17:16 53.13017 22.69308 36843 ft 449 kts
2026-05-05 17:17 53.19176 22.71168 36837 ft 449 kts
2026-05-05 17:17 53.25341 22.73044 36836 ft 449 kts
2026-05-05 17:18 53.31454 22.74910 36844 ft 449 kts
2026-05-05 17:18 53.37640 22.76794 36854 ft 450 kts
2026-05-05 17:19 53.43787 22.78679 36853 ft 450 kts
2026-05-05 17:19 53.49951 22.80570 36855 ft 450 kts
2026-05-05 17:20 53.56092 22.82464 36869 ft 451 kts
2026-05-05 17:20 53.62297 22.84385 36877 ft 451 kts
2026-05-05 17:21 53.68464 22.86285 36874 ft 452 kts
2026-05-05 17:22 53.77732 22.89166 36869 ft 453 kts
2026-05-05 17:22 53.83934 22.91094 36875 ft 453 kts
2026-05-05 17:23 53.90143 22.93038 36877 ft 453 kts
2026-05-05 17:23 53.96349 22.94997 36878 ft 453 kts
2026-05-05 17:24 54.02536 22.96950 36885 ft 453 kts
2026-05-05 17:24 54.08737 22.98908 36904 ft 453 kts
2026-05-05 17:25 54.14947 23.00869 36899 ft 454 kts
2026-05-05 17:25 54.21157 23.02844 36900 ft 454 kts
2026-05-05 17:26 54.27372 23.04821 36894 ft 454 kts
2026-05-05 17:26 54.33587 23.06812 36899 ft 454 kts
2026-05-05 17:27 54.39803 23.08810 36912 ft 455 kts
2026-05-05 17:27 54.45982 23.10796 36907 ft 455 kts
2026-05-05 17:28 54.52208 23.12808 36935 ft 455 kts
2026-05-05 17:28 54.58439 23.14834 36924 ft 455 kts
2026-05-05 17:29 54.64672 23.16865 36931 ft 456 kts
2026-05-05 17:29 54.70902 23.18887 36924 ft 456 kts
2026-05-05 17:30 54.77134 23.20925 36921 ft 456 kts
2026-05-05 17:30 54.83369 23.22974 36919 ft 456 kts
2026-05-05 17:31 54.89602 23.25026 36931 ft 456 kts
2026-05-05 17:31 54.95835 23.27084 36928 ft 456 kts
2026-05-05 17:32 55.02073 23.29156 36926 ft 456 kts
2026-05-05 17:32 55.08312 23.31228 36923 ft 456 kts
2026-05-05 17:33 55.14547 23.33300 36939 ft 456 kts
2026-05-05 17:33 55.20790 23.35381 36928 ft 457 kts
2026-05-05 17:34 55.27030 23.37475 36917 ft 457 kts
2026-05-05 17:34 55.33275 23.39574 36920 ft 457 kts
2026-05-05 17:35 55.39519 23.41681 36937 ft 457 kts
2026-05-05 17:35 55.45728 23.43779 36922 ft 457 kts
2026-05-05 17:36 55.51984 23.45897 36914 ft 458 kts
2026-05-05 17:36 55.58244 23.48042 36921 ft 458 kts
2026-05-05 17:37 55.64512 23.50181 36907 ft 459 kts
2026-05-05 17:37 55.70786 23.52326 36926 ft 459 kts
2026-05-05 17:38 55.76005 23.54125 36919 ft 460 kts
2026-05-05 17:38 55.82291 23.56306 36905 ft 460 kts
2026-05-05 17:39 55.88567 23.58476 36903 ft 460 kts
2026-05-05 17:39 55.94859 23.60661 36933 ft 460 kts
2026-05-05 17:40 56.01104 23.62838 36917 ft 460 kts
2026-05-05 17:40 56.07392 23.65039 36907 ft 460 kts
2026-05-05 17:41 56.13684 23.67248 36902 ft 460 kts
2026-05-05 17:41 56.19968 23.69462 36921 ft 460 kts
2026-05-05 17:42 56.26256 23.71683 36914 ft 460 kts
2026-05-05 17:42 56.32507 23.73896 36909 ft 460 kts
2026-05-05 17:43 56.38808 23.76143 36906 ft 460 kts
2026-05-05 17:43 56.45064 23.78576 36904 ft 461 kts
2026-05-05 17:44 56.57797 23.83793 36902 ft 461 kts
2026-05-05 17:45 56.64063 23.86222 36929 ft 460 kts
2026-05-05 17:45 56.70344 23.88474 36909 ft 460 kts
2026-05-05 17:46 56.76636 23.90739 36918 ft 461 kts
2026-05-05 17:46 56.82928 23.93069 36918 ft 461 kts
2026-05-05 17:47 56.89227 23.95439 36902 ft 462 kts
2026-05-05 17:47 56.95523 23.97763 36904 ft 461 kts
2026-05-05 17:48 57.01834 23.99850 36930 ft 461 kts
2026-05-05 17:48 57.08108 24.01861 36916 ft 461 kts
2026-05-05 17:49 57.14427 24.03945 36909 ft 461 kts
2026-05-05 17:49 57.20746 24.06075 36904 ft 462 kts
2026-05-05 17:50 57.27063 24.08232 36902 ft 462 kts
2026-05-05 17:50 57.33383 24.10389 36923 ft 462 kts
2026-05-05 17:51 57.39710 24.12534 36904 ft 462 kts
2026-05-05 17:51 57.46036 24.14691 36906 ft 462 kts
2026-05-05 17:52 57.52363 24.16854 36895 ft 462 kts
2026-05-05 17:52 57.58657 24.19012 36918 ft 462 kts
2026-05-05 17:53 57.64973 24.21200 36905 ft 461 kts
2026-05-05 17:53 57.71329 24.23417 36900 ft 461 kts
2026-05-05 17:54 57.77628 24.25621 36893 ft 461 kts
2026-05-05 17:54 57.83890 24.27812 36913 ft 461 kts
2026-05-05 17:55 57.90192 24.30086 36906 ft 461 kts
2026-05-05 17:55 57.96486 24.32623 36890 ft 462 kts
2026-05-05 17:56 58.02768 24.35247 36886 ft 462 kts
2026-05-05 17:56 58.09044 24.37826 36877 ft 461 kts
2026-05-05 17:57 58.15324 24.40372 36900 ft 461 kts
2026-05-05 17:57 58.21570 24.42908 36881 ft 461 kts
2026-05-05 17:58 58.27847 24.45478 36877 ft 462 kts
2026-05-05 17:58 58.34127 24.48075 36867 ft 462 kts
2026-05-05 17:59 58.40405 24.50659 36899 ft 462 kts
2026-05-05 17:59 58.46694 24.53263 36872 ft 463 kts
2026-05-05 18:00 58.52990 24.55902 36869 ft 463 kts
2026-05-05 18:00 58.59286 24.58524 36854 ft 463 kts
2026-05-05 18:01 58.65550 24.61139 36858 ft 464 kts
2026-05-05 18:01 58.71865 24.63803 36896 ft 466 kts
2026-05-05 18:02 58.78206 24.66494 36787 ft 467 kts
2026-05-05 18:02 58.81411 24.67845 35668 ft 477 kts
2026-05-05 18:02 58.84671 24.69210 34795 ft 481 kts
2026-05-05 18:02 58.87936 24.70591 34171 ft 478 kts
2026-05-05 18:03 58.91172 24.71980 33582 ft 475 kts
2026-05-05 18:03 58.94391 24.73371 32959 ft 470 kts
2026-05-05 18:03 58.97570 24.74743 32377 ft 467 kts
2026-05-05 18:03 59.00734 24.76106 31769 ft 464 kts
2026-05-05 18:04 59.03837 24.77441 31204 ft 460 kts
2026-05-05 18:04 59.06955 24.78780 30653 ft 457 kts
2026-05-05 18:04 59.10055 24.80117 30117 ft 454 kts
2026-05-05 18:04 59.13122 24.81438 29538 ft 451 kts
2026-05-05 18:05 59.16178 24.82751 28945 ft 447 kts
2026-05-05 18:05 59.19206 24.84055 28373 ft 444 kts
2026-05-05 18:05 59.22210 24.85357 27818 ft 440 kts
2026-05-05 18:05 59.25186 24.86656 27273 ft 437 kts
2026-05-05 18:06 59.28110 24.87935 26750 ft 434 kts
2026-05-05 18:06 59.30097 24.88800 26399 ft 432 kts
2026-05-05 18:06 59.33974 24.90486 25621 ft 431 kts
2026-05-05 18:06 59.36898 24.91763 25028 ft 430 kts
2026-05-05 18:07 59.39819 24.93041 24447 ft 430 kts
2026-05-05 18:07 59.42738 24.94320 23872 ft 429 kts
2026-05-05 18:07 59.45651 24.95602 23299 ft 429 kts
2026-05-05 18:07 59.48560 24.96893 22632 ft 429 kts
2026-05-05 18:08 59.51474 24.98191 21984 ft 428 kts
2026-05-05 18:08 59.54379 24.99480 21392 ft 428 kts
2026-05-05 18:08 59.57286 25.00771 20766 ft 428 kts
2026-05-05 18:08 59.60189 25.02059 20155 ft 427 kts
2026-05-05 18:09 59.63085 25.03342 19557 ft 426 kts
2026-05-05 18:09 59.65972 25.04626 18968 ft 425 kts
2026-05-05 18:09 59.68846 25.05908 18394 ft 424 kts
2026-05-05 18:09 59.71686 25.07175 17794 ft 423 kts
2026-05-05 18:10 59.74546 25.08451 17137 ft 421 kts
2026-05-05 18:10 59.77401 25.09728 16498 ft 420 kts
2026-05-05 18:10 59.80225 25.11001 15879 ft 418 kts
2026-05-05 18:10 59.83054 25.12284 15401 ft 414 kts
2026-05-05 18:11 59.85842 25.13554 14995 ft 409 kts
2026-05-05 18:11 59.88600 25.14807 14546 ft 404 kts
2026-05-05 18:11 59.91329 25.16046 14106 ft 399 kts
2026-05-05 18:11 59.94022 25.17268 13651 ft 395 kts
2026-05-05 18:12 59.96687 25.18474 13113 ft 391 kts
2026-05-05 18:12 59.99330 25.19669 12561 ft 388 kts
2026-05-05 18:12 60.01950 25.20859 12038 ft 384 kts
2026-05-05 18:12 60.04528 25.22038 11567 ft 378 kts
2026-05-05 18:13 60.07076 25.23210 11103 ft 372 kts
2026-05-05 18:13 60.09549 25.24348 10651 ft 366 kts
2026-05-05 18:13 60.12011 25.25481 10229 ft 360 kts
2026-05-05 18:13 60.14431 25.26596 9807 ft 353 kts
2026-05-05 18:14 60.16801 25.27687 9352 ft 346 kts
2026-05-05 18:14 60.19128 25.28758 8884 ft 340 kts
2026-05-05 18:14 60.21415 25.29808 8423 ft 334 kts
2026-05-05 18:14 60.23660 25.30837 7964 ft 327 kts
2026-05-05 18:15 60.25820 25.31837 7507 ft 309 kts
2026-05-05 18:15 60.27877 25.32797 7044 ft 299 kts
2026-05-05 18:15 60.29883 25.33730 6558 ft 292 kts
2026-05-05 18:15 60.31810 25.34625 6180 ft 277 kts
2026-05-05 18:16 60.33674 25.35490 5840 ft 271 kts
2026-05-05 18:16 60.35488 25.36328 5623 ft 262 kts
2026-05-05 18:16 60.37232 25.37141 5370 ft 254 kts
2026-05-05 18:16 60.38945 25.37555 5098 ft 240 kts 352°
2026-05-05 18:17 60.40516 25.36874 4843 ft 227 kts 334°
2026-05-05 18:17 60.41847 25.35302 4572 ft 219 kts 317°
2026-05-05 18:17 60.42952 25.33280 4289 ft 215 kts 315°
2026-05-05 18:17 60.44057 25.31242 3945 ft 214 kts 315°
2026-05-05 18:18 60.44932 25.28962 3849 ft 198 kts 291°
2026-05-05 18:18 60.45140 25.26331 3781 ft 186 kts 265°
2026-05-05 18:18 60.44737 25.23925 3661 ft 179 kts 240°
2026-05-05 18:18 60.43937 25.22030 3414 ft 174 kts 232°
2026-05-05 18:19 60.43139 25.20258 3172 ft 167 kts 232°
2026-05-05 18:19 60.42628 25.19119 3025 ft 163 kts 233°
2026-05-05 18:19 60.41876 25.17444 2808 ft 159 kts 233°
2026-05-05 18:19 60.41141 25.15809 2584 ft 155 kts 233°
2026-05-05 18:20 60.40423 25.14211 2383 ft 152 kts 233°
2026-05-05 18:20 60.39714 25.12635 2165 ft 151 kts 233°
2026-05-05 18:20 60.39013 25.11079 1950 ft 148 kts 233°
2026-05-05 18:20 60.38319 25.09537 1766 ft 148 kts 233°
2026-05-05 18:21 60.37635 25.08021 1550 ft 143 kts 234°
2026-05-05 18:21 60.36977 25.06566 1348 ft 136 kts 233°
2026-05-05 18:21 60.36356 25.05189 1160 ft 130 kts 233°
2026-05-05 18:21 60.35753 25.03848 968 ft 128 kts 232°
2026-05-05 18:22 60.35150 25.02506 785 ft 129 kts 232°
2026-05-05 18:22 60.34550 25.01175 626 ft 128 kts 231°
2026-05-05 18:22 60.33952 24.99854 473 ft 128 kts 230°
2026-05-05 18:22 60.33356 24.98539 276 ft 130 kts 229°
2026-05-05 18:23 60.32764 24.97236 177 ft 118 kts 230°
2026-05-05 18:23 60.32322 24.96260 177 ft 65 kts 227°
2026-05-05 18:23 60.32156 24.95897 177 ft 18 kts 227°
2026-05-05 18:23 60.32066 24.95812 175 ft 12 kts 172°
2026-05-05 18:24 60.32007 24.95885 173 ft 8 kts 138°
2026-05-05 18:24 60.31966 24.95972 171 ft 9 kts 115°
2026-05-05 18:24 60.31991 24.96092 169 ft 10 kts 50°
2026-05-05 18:24 60.32038 24.96200 168 ft 10 kts 48°
2026-05-05 18:25 60.32090 24.96315 168 ft 12 kts 48°
2026-05-05 18:25 60.32132 24.96407 168 ft 14 kts 47°
2026-05-05 18:25 60.32220 24.96599 168 ft 12 kts 47°
2026-05-05 18:25 60.32246 24.96704 167 ft 8 kts 98°
2026-05-05 18:26 60.32204 24.96780 166 ft 8 kts 148°
2026-05-05 18:26 60.32159 24.96833 166 ft 9 kts 149°
2026-05-05 18:26 60.32097 24.96908 166 ft 10 kts 149°
2026-05-05 18:26 60.32037 24.96975 166 ft 9 kts 153°
2026-05-05 18:27 60.31984 24.97031 166 ft 8 kts 153°
2026-05-05 18:27 60.31938 24.97069 166 ft 6 kts 182°
2026-05-05 18:27 60.31913 24.97004 166 ft 6 kts 241°
2026-05-05 18:27 60.31903 24.96963 166 ft 1 kts 242°